Satellite-Ground Cal/Val Site Overpasses Predictions

Prediction of Satellite NPP Overpassing Cal/Val Site: Antarctic Dome C

Ground Cal/Val Site Location: Latitude: -75.10, Longitude: 123.35; Satellite-Ground Site NADIR distance within 100 km.

Table of predicted overpasses for the next 14.0 days since TLE Epoch: 5/5/2013
Interval Starting Time Ending Time Minimum Distance Time Minimum Distance (km)
1 05/05/2013 14:48:13 05/05/2013 14:48:43 05/05/2013 14:48:28 9.36
2 05/07/2013 07:31:04 05/07/2013 07:31:33 05/07/2013 07:31:18 1.67
3 05/10/2013 14:54:32 05/10/2013 14:55:00 05/10/2013 14:54:46 27.06
4 05/11/2013 14:35:49 05/11/2013 14:36:06 05/11/2013 14:35:57 80.20
5 05/12/2013 07:37:22 05/12/2013 07:37:49 05/12/2013 07:37:36 36.77
6 05/13/2013 07:18:37 05/13/2013 07:18:57 05/13/2013 07:18:47 73.16
7 05/15/2013 15:00:53 05/15/2013 15:01:15 05/15/2013 15:01:04 64.01
8 05/16/2013 14:42:01 05/16/2013 14:42:27 05/16/2013 14:42:14 45.36
9 05/17/2013 07:43:44 05/17/2013 07:44:04 05/17/2013 07:43:54 71.78


NCC Satellite Cal/Val Overpasses Prediction Service
